COSMOS 871

导读

COSMOS 871是苏联(CIS)于1976年12月7日08:00发射的宇宙系列卫星,该系列卫星承担多样航天任务,早期不少卫星被认为兼具科研试验与军事侦察功能。作为冷战时期苏联航天活动的产物,它见证了那个时代航天技术的发展,推动了苏联航天技术迭代,为后续各类卫星研制与空间探索积累了宝贵的轨道飞行与空间环境数据,在世界航天发展早期进程中留下印记。

Basic Information
目录编号:
9588
目录名称:
COSMOS 871
国际标识:
1976-118A
轨道中心:
EARTH
卫星名称:
COSMOS 871
卫星全名:
--
卫星状态:
在轨 (已飞行18178 天)
发射日期:
1976-12-07 UTC
国别 :
俄罗斯(独联体) (CIS)
星等 :
--
This satellite is enrolled in the Space Conjunction Data Service (SCDS) and the current flight risk assessment level is: No High Risk
Orbit Information
数据来源 国际轨道数据 AOE轨道数据
星历时间 2026-09-13T23:33:51+0800
14小时前
查看轨道信息
2026-09-13T02:00:00+0800
1天前
查看轨道信息
半长轴 7818.563km 7818.567km
偏心率 0.0030114 0.0030139
轨道倾角 74.032° 74.031°
近地点辐角 209.360° 210.731°
升交点赤经 311.724° 312.931°
平近点角 319.004° 217.048°
近地点 1416.881km 1416.865km
远地点 1463.971km 1463.995km
周期 114.670分钟 114.670分钟
每日圈数 12.557767 12.557756
Detailed Information
使用方式:
暂无
2D Orbit Map
3D Orbit Map
Orbit Altitude Analysis Chart
Orbit Inclination Analysis Chart
Orbit Comprehensive Analysis Chart
View Comprehensive Chart
Conjunction Data List
Event ID Objects TCA Miss Dist (km) Collision Risk Probability Collision Risk Index (CRI) Action
CDM_260908-234200-958806-060528
SL-8 DEB (60605)
2026-09-08T
23:42:55+0000
1.540 km
极远距离
5.858101E-6 低风险 0.5
Miss Distance Evolution Trend with All Objects Subscribe to Flight Safety Assessment
Collision Probability Evolution Trend with All Objects Subscribe to Flight Safety Assessment